Wind_Speed
15 12 5 15 13 11 16 8 7 5 6 8 6 3 2 7 5 4 18 16 17 15 15 17 15 15 16 14 14 14 16 16 16 16 15 15 16 14 12 13 15 18 17 17 16 15 14 14 13
19 23 16 20 9 11 13 13 9 7 9 4 8 6 3 4 5 12 21 19 16 14 14 15 16 16 14 12 11 12 13 15 15 14 12 13 14 9 6 12 15 15 16 15 15 14 13 11 10
25 14 17 9 14 8 8 15 11 4 9 8 10 9 13 10 15 18 18 18 17 15 14 14 15 16 12 12 13 12 11 11 10 9 12 12 12 11 6 9 13 14 14 13 12 12 10 8 8
18 10 14 17 16 17 16 7 5 8 5 9 12 9 15 16 10 15 19 16 17 15 13 13 13 12 10 11 11 10 7 8 8 7 8 9 9 8 11 8 8 11 12 12 10 9 7 7 5
17 14 15 14 10 12 14 16 11 6 6 10 11 11 10 13 10 16 16 17 15 15 14 13 11 10 10 7 7 4 3 4 8 7 8 10 12 11 12 10 9 9 9 9 7 7 5 5 3
5 19 16 13 18 13 13 8 10 9 7 9 12 11 8 10 8 14 14 15 15 12 15 13 12 11 10 8 7 7 6 6 5 7 9 14 17 16 18 16 11 11 10 8 7 5 4 3 3
5 8 7 8 14 10 8 8 11 11 6 7 9 11 5 11 10 15 17 14 13 13 13 13 12 11 11 9 8 8 8 7 7 8 8 7 21 23 23 20 18 14 13 10 8 6 5 4 3
7 3 7 10 10 9 8 9 9 11 5 5 8 14 2 10 11 13 16 15 13 12 13 11 10 9 8 8 7 7 7 6 7 9 8 9 10 17 27 28 22 19 15 12 10 8 7 6 5
7 19 8 9 3 9 4 11 2 2 2 6 6 2 4 12 11 9 9 10 11 12 12 11 10 8 7 7 7 6 5 5 6 8 7 8 7 10 15 19 29 23 19 14 11 11 9 7 8
14 11 9 9 8 5 9 8 9 6 9 9 5 4 8 13 10 9 8 9 8 10 9 10 9 8 7 7 7 4 4 6 5 5 6 7 7 8 9 16 26 25 20 16 14 12 9 9 9
13 8 6 6 5 6 5 5 6 4 6 16 12 6 6 11 9 5 9 5 5 9 7 7 7 6 6 5 4 5 5 4 3 3 3 6 5 6 8 16 19 23 20 16 15 12 9 9 11
12 8 2 8 7 5 4 5 10 6 8 14 16 14 7 9 6 3 2 1 4 3 5 8 8 5 4 4 5 4 3 3 5 2 3 2 5 4 5 10 17 22 20 18 15 12 11 7 6
4 5 5 11 6 7 2 6 6 14 6 12 14 16 13 9 6 3 3 4 5 7 6 3 2 3 4 2 3 0 7 4 6 4 1 5 5 5 3 10 17 22 22 20 16 14 12 10 11
2 10 7 7 8 6 1 3 3 6 4 3 11 13 15 15 10 4 5 8 8 10 11 7 4 2 3 5 3 4 2 6 1 5 5 5 6 7 9 8 14 19 20 19 15 14 13 11 11
10 5 6 9 11 9 6 7 8 3 8 5 4 10 13 13 12 7 5 8 10 14 15 12 5 4 3 6 7 5 4 4 5 3 4 12 9 4 10 11 11 17 19 17 15 15 13 12 11
6 7 8 15 6 8 7 9 13 9 8 5 4 7 12 11 9 7 7 4 6 8 12 11 9 5 5 4 6 5 2 3 3 5 3 2 4 4 6 13 11 15 18 18 17 16 13 14 11
6 7 12 13 10 10 13 8 15 14 12 12 6 3 7 12 7 4 3 6 2 4 8 7 6 6 4 4 7 4 4 3 7 5 9 8 9 8 6 12 12 13 14 15 16 15 14 12 12
8 13 15 14 14 13 6 8 7 18 19 16 10 4 2 6 11 5 3 5 3 1 6 8 7 5 5 8 9 6 5 5 5 5 6 7 7 5 7 11 13 12 12 12 12 13 14 11 12
4 3 7 12 13 10 4 3 5 14 25 21 16 10 4 0 11 7 6 6 5 4 2 8 5 2 1 4 6 7 7 5 3 3 4 5 6 8 7 8 9 10 10 10 10 11 9 9 11
4 13 8 12 7 6 6 7 8 6 25 27 17 9 9 8 4 7 4 7 7 4 2 3 7 4 2 3 6 7 8 5 5 4 5 5 2 4 9 9 6 12 11 9 9 7 9 10 13
6 3 1 3 4 6 7 11 13 9 6 13 23 16 14 16 8 3 8 17 12 5 3 5 5 5 3 4 6 7 6 6 6 7 5 3 2 3 1 5 5 6 12 11 11 11 10 10 12
7 3 3 4 7 8 4 5 16 11 5 1 5 10 24 22 11 14 14 16 14 14 7 7 7 7 6 5 7 5 4 5 6 6 6 5 3 3 6 5 7 8 9 14 10 12 10 11 10
12 5 15 13 11 15 6 3 14 13 4 3 5 7 10 19 19 13 18 6 16 18 12 6 8 9 10 8 6 7 4 4 5 3 3 5 5 4 6 7 7 6 6 10 14 11 17 16 13
9 12 17 11 16 6 2 4 11 5 8 3 10 4 3 6 10 15 7 11 19 20 17 12 8 9 11 11 7 6 7 7 6 5 4 5 6 6 7 8 10 13 12 11 16 15 14 17 15
12 9 6 6 3 3 6 7 6 9 5 5 12 9 10 10 5 1 5 8 23 30 17 14 12 12 11 10 10 10 9 7 7 9 10 6 8 8 10 9 10 10 13 16 14 13 17 17 19
13 10 6 3 2 4 6 4 5 3 3 8 10 8 7 9 6 3 2 4 13 22 24 24 23 21 13 13 13 13 10 11 10 10 10 11 10 9 12 9 10 17 13 12 13 14 14 17 19
4 15 10 8 4 7 3 3 3 12 12 9 16 14 10 8 2 4 12 12 9 17 28 18 31 31 11 13 13 14 11 12 14 13 14 13 15 15 14 13 16 14 11 12 17 14 13 16 20
15 13 11 8 3 2 5 6 12 14 16 16 12 17 19 10 7 8 11 7 23 26 26 21 11 13 12 19 23 14 13 12 13 15 15 17 17 19 20 19 19 27 18 12 15 20 19 18 19
7 9 5 3 1 7 4 7 11 16 20 16 8 13 8 7 15 12 12 14 23 17 23 30 20 15 16 14 11 10 11 13 16 19 19 17 17 19 21 24 15 20 7 13 13 13 18 17 19
10 10 11 6 6 2 4 1 4 5 8 15 14 10 6 14 15 17 18 18 13 15 18 12 22 23 20 17 13 14 15 18 19 20 20 20 18 18 18 18 20 13 14 16 15 13 18 16 16
Wind_Direction
15 0 326 72 70 88 72 82 91 68 38 69 7 341 341 156 145 174 156 149 139 147 149 146 146 144 144 146 153 153 149 147 146 148 147 146 145 141 143 140 137 132 132 131 127 125 123 126 126
24 55 79 74 74 68 67 66 95 57 27 43 16 4 79 212 191 168 162 151 144 152 152 149 146 146 142 146 153 156 157 154 151 154 152 159 154 140 175 153 146 141 135 133 130 127 125 123 120
42 87 89 67 54 62 22 93 104 83 344 17 24 64 86 92 127 152 157 156 148 152 150 151 149 153 146 143 151 153 160 156 150 161 160 176 180 148 175 175 163 152 143 135 131 124 125 129 128
40 65 81 78 66 69 91 114 117 112 87 34 38 54 80 92 142 147 153 148 149 153 148 150 154 162 154 148 157 146 165 177 177 181 192 194 208 188 178 192 186 174 161 150 144 129 130 135 140
66 47 65 77 86 64 68 74 108 19 22 58 10 53 73 83 143 155 151 146 153 158 155 154 156 161 164 152 164 159 138 185 220 226 215 221 216 220 229 198 205 194 188 170 164 148 150 149 162
28 45 84 65 76 60 79 97 9 42 37 23 355 27 74 99 130 146 149 154 153 166 162 159 159 164 166 156 160 165 179 195 228 258 253 215 219 227 233 215 215 215 206 201 197 186 191 184 192
285 40 21 77 88 81 65 55 44 27 31 7 10 357 87 139 134 148 156 168 161 165 164 162 164 169 170 168 169 173 188 201 212 238 252 254 223 225 228 227 214 217 216 210 215 218 218 219 231
284 261 85 122 117 94 37 19 63 32 15 342 335 336 34 145 137 140 144 159 167 164 164 166 169 174 175 176 179 184 200 220 231 245 253 253 257 237 232 235 219 212 219 216 219 228 230 237 260
271 233 113 135 83 49 86 29 145 2 25 9 350 34 109 141 147 150 137 149 165 170 171 172 176 175 177 185 196 206 222 245 253 256 265 263 274 255 252 239 214 207 216 215 222 231 237 245 268
146 142 107 158 120 34 80 79 138 141 39 17 22 116 134 113 126 102 95 140 142 164 186 182 181 174 192 199 203 205 246 270 288 257 266 279 292 276 257 228 203 205 214 215 221 230 241 252 270
174 138 122 137 111 76 90 64 106 128 57 33 39 55 134 119 117 102 93 131 125 157 168 175 175 184 212 225 218 235 190 244 341 5 243 289 292 261 249 198 201 204 212 217 224 231 242 255 270
135 136 111 170 173 179 325 17 56 58 65 41 43 60 112 157 155 153 291 200 63 119 133 171 153 155 210 218 229 256 184 238 278 186 259 307 300 303 217 199 205 204 214 220 222 226 237 239 238
93 177 171 137 140 169 252 88 43 12 61 53 49 52 76 98 142 173 282 322 28 26 19 273 250 190 191 233 268 126 234 246 273 216 95 248 285 283 256 222 208 205 212 219 222 229 234 243 255
355 196 205 130 148 181 289 145 253 358 196 87 57 53 45 59 90 177 270 322 340 338 356 356 309 307 243 287 304 260 271 249 301 192 215 263 268 255 252 239 221 211 214 218 221 227 230 229 231
157 213 246 180 149 166 149 168 238 267 208 264 45 51 50 41 55 80 26 330 340 341 342 349 323 335 341 294 312 320 269 295 248 238 272 282 279 210 250 215 223 215 215 219 218 231 231 229 222
196 251 227 185 195 199 239 229 245 235 229 251 300 36 47 62 35 62 68 61 28 337 348 340 338 300 343 343 337 342 325 278 277 265 271 278 216 225 242 238 226 222 220 221 228 230 230 226 227
252 249 214 214 225 208 231 246 237 233 236 247 252 356 59 55 49 21 49 53 53 337 340 29 21 333 321 312 328 307 301 276 245 300 242 262 282 260 241 231 233 226 221 223 228 230 225 235 243
289 252 253 229 201 205 242 271 231 239 236 251 252 263 57 77 41 24 29 23 27 168 22 38 62 34 338 309 317 310 317 284 295 291 280 285 285 244 232 240 225 235 229 218 222 226 225 229 239
345 11 272 211 192 180 340 304 237 247 232 240 235 244 250 159 71 21 339 333 339 13 56 35 55 65 268 300 309 339 321 302 319 307 307 311 301 283 201 170 186 211 219 210 217 220 228 225 240
281 0 101 131 156 247 308 280 259 301 223 231 236 253 261 219 138 64 341 298 303 345 330 344 17 7 302 283 287 299 309 308 319 322 329 338 319 83 141 176 209 210 211 217 226 217 224 234 252
337 7 95 348 301 268 266 294 254 227 161 224 227 250 245 220 203 203 301 282 268 258 317 316 335 340 7 352 315 301 302 312 302 308 317 344 322 212 235 255 267 245 221 214 222 221 232 231 247
282 354 350 333 306 282 274 271 188 201 195 245 165 196 221 217 206 233 244 279 285 289 279 300 302 323 339 348 360 348 298 317 316 309 311 304 308 278 266 265 272 278 250 224 229 229 233 222 242
261 306 317 296 294 298 341 156 193 233 194 109 263 242 228 232 267 269 210 283 272 272 277 275 270 292 304 320 339 356 351 320 335 332 306 317 303 290 264 264 254 254 262 240 227 258 238 215 228
262 272 309 306 296 290 159 197 208 277 292 288 152 346 159 207 248 232 205 246 259 258 258 246 236 266 289 283 301 320 341 337 326 324 301 315 313 305 288 264 251 244 250 241 233 247 231 228 236
239 290 319 325 357 241 205 193 211 331 1 169 193 197 172 162 99 97 239 255 241 237 226 216 225 234 264 281 286 278 294 314 317 311 303 299 305 305 292 280 261 264 255 241 236 252 250 247 248
238 248 258 253 217 198 23 2 182 322 351 167 203 184 180 136 77 57 346 250 244 232 240 224 237 231 237 267 269 273 281 291 303 301 301 291 305 297 274 281 265 316 250 264 253 243 251 255 254
207 253 287 303 123 96 35 327 252 203 262 251 210 189 168 143 331 268 330 317 312 273 272 236 321 228 244 253 266 275 268 279 288 294 294 297 285 278 284 282 248 267 242 266 259 245 240 255 259
254 268 287 302 178 100 253 260 247 216 227 231 243 198 180 179 265 283 314 341 333 299 287 292 290 254 203 266 231 247 261 263 281 283 280 283 285 276 278 268 261 257 246 253 262 253 244 261 269
252 264 358 321 87 155 179 236 244 238 232 253 14 188 198 217 270 268 291 281 328 323 314 305 281 286 288 286 286 266 261 264 279 285 288 280 280 277 279 276 289 346 314 293 291 287 310 302 297
105 62 30 37 348 307 221 147 194 134 217 231 239 222 224 242 267 274 293 304 331 334 328 308 268 277 284 285 301 292 282 276 274 281 279 281 284 278 285 289 277 293 274 271 287 270 316 291 293
Height
3178 3176 3175 3172 3176 3173 3174 3175 3175 3171 3171 3173 3170 3169 3168 3167 3168 3172 3169 3172 3173 3176 3177 3178 3181 3183 3185 3187 3188 3189 3190 3192 3193 3194 3195 3196 3197 3199 3200 3200 3200 3201 3203 3205 3207 3208 3208 3208 3209
3180 3177 3174 3175 3175 3173 3175 3177 3176 3174 3171 3174 3174 3170 3167 3167 3166 3167 3169 3172 3174 3177 3179 3180 3183 3185 3188 3189 3190 3191 3192 3193 3194 3196 3197 3198 3199 3200 3202 3202 3202 3204 3205 3207 3208 3210 3210 3210 3211
3183 3180 3179 3177 3178 3178 3179 3180 3179 3177 3174 3173 3173 3172 3168 3169 3167 3169 3171 3173 3176 3179 3181 3182 3184 3186 3188 3189 3191 3192 3194 3196 3197 3198 3198 3200 3200 3199 3203 3204 3205 3206 3207 3209 3210 3210 3211 3211 3213
3185 3185 3183 3180 3179 3179 3184 3180 3180 3178 3177 3173 3173 3173 3171 3171 3173 3173 3174 3175 3177 3181 3183 3184 3185 3187 3189 3190 3192 3193 3195 3196 3197 3198 3199 3201 3202 3202 3202 3205 3207 3209 3209 3209 3211 3211 3212 3213 3213
3189 3185 3182 3180 3181 3180 3181 3179 3178 3177 3175 3175 3176 3174 3172 3173 3174 3175 3176 3178 3180 3182 3184 3185 3187 3189 3190 3191 3192 3194 3195 3196 3197 3198 3198 3199 3201 3201 3201 3204 3207 3210 3210 3210 3211 3211 3212 3213 3213
3188 3187 3186 3184 3184 3184 3183 3182 3180 3178 3175 3176 3176 3174 3173 3175 3176 3177 3179 3179 3182 3184 3185 3186 3188 3189 3191 3191 3193 3194 3195 3196 3197 3196 3196 3197 3198 3199 3199 3201 3206 3208 3210 3211 3211 3211 3211 3211 3212
3191 3189 3189 3188 3187 3186 3184 3182 3179 3178 3176 3175 3175 3174 3175 3175 3177 3179 3180 3181 3184 3185 3187 3187 3189 3190 3191 3192 3193 3194 3195 3195 3196 3195 3194 3194 3194 3195 3197 3200 3203 3206 3208 3209 3210 3210 3210 3210 3210
3191 3191 3186 3187 3189 3187 3186 3184 3181 3180 3179 3177 3176 3175 3174 3174 3177 3179 3181 3183 3185 3186 3187 3188 3190 3191 3192 3193 3194 3195 3195 3195 3195 3194 3193 3192 3192 3192 3194 3197 3200 3203 3206 3208 3208 3208 3209 3210 3210
3188 3190 3188 3188 3188 3187 3186 3186 3183 3182 3180 3178 3178 3176 3175 3175 3177 3179 3183 3183 3185 3186 3187 3189 3190 3192 3192 3193 3194 3194 3194 3194 3194 3194 3193 3191 3190 3190 3189 3189 3195 3200 3204 3206 3207 3207 3208 3208 3208
3183 3188 3187 3187 3187 3188 3188 3187 3186 3184 3182 3181 3179 3177 3175 3178 3178 3182 3184 3185 3186 3187 3188 3189 3190 3191 3191 3192 3193 3194 3194 3194 3194 3192 3192 3191 3189 3187 3185 3186 3192 3197 3201 3204 3204 3206 3208 3208 3207
3188 3187 3187 3187 3187 3188 3186 3185 3183 3183 3183 3180 3179 3177 3177 3180 3181 3183 3185 3188 3188 3189 3189 3189 3191 3191 3191 3192 3193 3191 3191 3192 3192 3190 3191 3189 3189 3187 3187 3187 3191 3195 3199 3201 3202 3205 3206 3206 3205
3186 3186 3187 3186 3187 3187 3186 3185 3184 3184 3183 3181 3181 3179 3179 3180 3182 3184 3186 3188 3189 3190 3189 3189 3190 3191 3190 3191 3192 3191 3190 3191 3191 3190 3188 3188 3188 3188 3187 3188 3190 3194 3197 3198 3201 3203 3203 3204 3203
3185 3185 3186 3186 3185 3185 3186 3186 3185 3185 3183 3184 3182 3182 3182 3182 3183 3184 3186 3187 3188 3189 3190 3190 3190 3190 3190 3191 3192 3192 3190 3191 3190 3190 3188 3187 3186 3188 3188 3188 3190 3191 3193 3196 3198 3199 3201 3202 3203
3185 3184 3185 3186 3185 3185 3185 3185 3186 3186 3184 3185 3185 3184 3184 3183 3183 3185 3185 3186 3185 3186 3188 3189 3189 3189 3189 3188 3189 3189 3190 3190 3189 3188 3188 3187 3185 3186 3187 3188 3188 3190 3191 3194 3196 3198 3199 3200 3201
3185 3186 3186 3186 3186 3187 3186 3186 3184 3184 3184 3185 3187 3186 3185 3185 3184 3184 3185 3186 3185 3186 3186 3189 3188 3188 3188 3187 3187 3187 3187 3188 3189 3187 3187 3185 3185 3184 3185 3186 3188 3189 3191 3192 3194 3195 3197 3199 3199
3184 3185 3185 3184 3186 3186 3186 3184 3183 3183 3183 3185 3186 3186 3186 3186 3185 3184 3184 3185 3183 3184 3185 3186 3187 3185 3185 3185 3185 3186 3187 3187 3186 3185 3185 3184 3184 3183 3184 3185 3187 3189 3190 3191 3192 3193 3194 3196 3196
3182 3182 3182 3184 3185 3185 3184 3182 3180 3181 3182 3183 3185 3186 3186 3186 3187 3186 3185 3185 3185 3185 3186 3185 3185 3184 3185 3183 3184 3185 3185 3185 3184 3183 3182 3183 3184 3184 3183 3183 3185 3187 3188 3190 3191 3192 3192 3194 3194
3181 3178 3179 3180 3183 3183 3182 3181 3180 3178 3180 3181 3183 3184 3186 3186 3188 3189 3187 3186 3187 3188 3188 3185 3182 3182 3181 3182 3182 3184 3183 3184 3183 3183 3181 3181 3182 3182 3182 3180 3182 3184 3186 3187 3188 3190 3191 3193 3193
3178 3177 3178 3176 3180 3182 3181 3180 3181 3179 3179 3181 3182 3183 3186 3187 3187 3189 3190 3191 3190 3188 3188 3185 3183 3182 3183 3184 3184 3184 3183 3182 3183 3182 3180 3180 3179 3179 3178 3179 3180 3183 3184 3183 3185 3187 3189 3191 3192
3177 3178 3177 3179 3180 3181 3180 3180 3179 3178 3177 3179 3181 3183 3184 3185 3186 3189 3192 3193 3189 3190 3189 3187 3186 3186 3185 3184 3184 3184 3183 3182 3181 3179 3178 3178 3177 3177 3177 3178 3178 3179 3180 3182 3182 3185 3186 3188 3190
3178 3179 3179 3180 3179 3178 3177 3178 3178 3180 3179 3177 3181 3184 3184 3185 3187 3188 3187 3187 3187 3190 3189 3188 3187 3187 3185 3184 3183 3183 3183 3182 3181 3179 3177 3176 3176 3177 3177 3178 3177 3178 3179 3179 3179 3181 3183 3185 3187
3178 3179 3178 3177 3177 3176 3177 3177 3177 3178 3180 3176 3179 3180 3180 3182 3187 3185 3185 3188 3188 3190 3190 3189 3188 3186 3185 3185 3182 3182 3182 3181 3181 3179 3177 3175 3175 3176 3176 3176 3175 3176 3176 3176 3177 3178 3179 3181 3183
3177 3177 3176 3175 3175 3174 3175 3175 3175 3178 3181 3178 3178 3179 3178 3179 3182 3179 3183 3186 3189 3188 3189 3189 3189 3187 3186 3184 3183 3182 3181 3181 3180 3180 3179 3177 3175 3173 3173 3173 3172 3174 3175 3175 3176 3176 3177 3178 3180
3174 3175 3174 3173 3172 3172 3171 3173 3175 3176 3178 3179 3179 3178 3180 3181 3182 3182 3182 3186 3189 3187 3184 3184 3182 3182 3182 3181 3180 3180 3179 3180 3179 3178 3177 3176 3174 3172 3170 3169 3169 3170 3172 3173 3174 3174 3175 3177 3179
3173 3174 3174 3174 3172 3173 3171 3172 3174 3172 3172 3176 3178 3178 3178 3180 3179 3181 3184 3186 3183 3179 3174 3172 3172 3170 3172 3174 3176 3177 3176 3176 3177 3176 3174 3172 3173 3171 3168 3167 3167 3169 3170 3171 3171 3171 3171 3173 3175
3170 3173 3174 3177 3175 3174 3173 3173 3172 3171 3169 3176 3178 3179 3178 3178 3176 3180 3182 3182 3178 3173 3168 3179 3174 3171 3169 3166 3170 3172 3171 3172 3172 3172 3172 3173 3170 3169 3166 3166 3167 3167 3166 3168 3168 3168 3168 3169 3169
3169 3170 3172 3170 3170 3171 3174 3174 3171 3169 3172 3174 3175 3176 3177 3177 3177 3179 3180 3178 3176 3170 3166 3170 3130 3111 3163 3170 3168 3171 3166 3167 3169 3167 3167 3167 3167 3166 3165 3164 3163 3163 3161 3163 3164 3165 3164 3165 3164
3167 3168 3169 3167 3170 3175 3172 3170 3168 3167 3170 3170 3174 3172 3173 3172 3177 3179 3179 3178 3175 3166 3160 3161 3155 3162 3137 3168 3158 3162 3163 3162 3163 3162 3163 3162 3161 3161 3160 3159 3154 3147 3154 3157 3156 3156 3158 3158 3159
3165 3165 3166 3166 3166 3167 3171 3164 3163 3166 3166 3164 3163 3162 3174 3174 3173 3176 3178 3177 3174 3164 3158 3156 3158 3159 3160 3162 3162 3159 3158 3159 3159 3160 3161 3159 3158 3157 3154 3152 3155 3148 3150 3153 3153 3149 3147 3152 3152
3165 3164 3165 3167 3166 3166 3164 3164 3163 3165 3164 3164 3165 3167 3167 3171 3171 3171 3170 3171 3171 3168 3162 3157 3155 3154 3155 3155 3152 3152 3153 3155 3156 3157 3156 3156 3153 3153 3150 3148 3148 3147 3147 3148 3147 3146 3147 3146 3145